{"data":{"norad_id":63919,"epoch":"2026-05-25T04:28:24.572064Z","epoch_age_seconds":49173,"freshness":"FRESH","line1":"1 63919U 25096B   26145.18639551  .00000121  00000+0  55173-4 0  9994","line2":"2 63919  85.9962 198.2430 0002038 101.0833 259.0579 14.12443797 53327","mean_motion":14.12443797,"eccentricity":0.0002038,"inclination_deg":85.9962,"raan_deg":198.243,"arg_perigee_deg":101.0833,"mean_anomaly_deg":259.0579,"bstar":5.5173e-5,"rev_number":5332,"period_min":101.95095925647,"perigee_km":849.54782136902,"apogee_km":852.49442622027,"semimajor_km":7229.1581237946,"source":"CELESTRAK","updated_at":"2026-05-25T13:38:04.084719Z"}}